Time,TemperatureF,DewpointF,PressureIn,WindDirection,WindDirectionDegrees,WindSpeedMPH,WindSpeedGustMPH,Humidity,HourlyPrecipIn,Conditions,Clouds,dailyrainin,SoftwareType,DateUTC
2013-02-14 00:00:00,36.0,31.6,29.90,SSW,192,5.0,7.0,84,0.00,,,0.00,Wunderground v.1.15,2013-02-14 05:00:00,
2013-02-14 00:01:00,35.9,31.5,29.90,SSE,149,4.0,7.0,84,0.00,,,0.00,Wunderground v.1.15,2013-02-14 05:01:00,
2013-02-14 00:02:00,35.9,31.5,29.90,South,185,4.0,7.0,84,0.00,,,0.00,Wunderground v.1.15,2013-02-14 05:02:00,
2013-02-14 00:07:00,35.9,31.5,29.90,South,174,4.0,6.0,84,0.00,,,0.00,Wunderground v.1.15,2013-02-14 05:07:00,
2013-02-14 00:13:00,35.7,31.6,29.90,SSE,152,4.0,6.0,85,0.00,,,0.00,Wunderground v.1.15,2013-02-14 05:13:00,
2013-02-14 00:19:00,35.5,31.4,29.90,SSE,158,4.0,6.0,85,0.00,,,0.00,Wunderground v.1.15,2013-02-14 05:19:00,
2013-02-14 00:25:00,35.3,31.2,29.90,SSE,163,3.0,6.0,85,0.00,,,0.00,Wunderground v.1.15,2013-02-14 05:25:00,
2013-02-14 00:31:00,35.3,31.5,29.90,South,173,3.0,6.0,86,0.00,,,0.00,Wunderground v.1.15,2013-02-14 05:31:00,
2013-02-14 00:37:00,35.2,31.4,29.90,SSE,160,3.0,6.0,86,0.00,,,0.00,Wunderground v.1.15,2013-02-14 05:37:00,
2013-02-14 00:43:00,35.0,31.2,29.90,SSE,157,3.0,6.0,86,0.00,,,0.00,Wunderground v.1.15,2013-02-14 05:43:00,
2013-02-14 00:49:00,35.1,31.6,29.90,SSE,168,3.0,6.0,87,0.00,,,0.00,Wunderground v.1.15,2013-02-14 05:49:00,
2013-02-14 00:55:00,35.0,31.5,29.90,SSE,156,3.0,6.0,87,0.00,,,0.00,Wunderground v.1.15,2013-02-14 05:55:00,
2013-02-14 01:01:00,35.1,31.6,29.90,SSE,164,3.0,6.0,87,0.00,,,0.00,Wunderground v.1.15,2013-02-14 06:01:00,
2013-02-14 01:07:00,35.1,31.6,29.89,South,171,3.0,6.0,87,0.00,,,0.00,Wunderground v.1.15,2013-02-14 06:07:00,
2013-02-14 01:13:00,35.1,31.9,29.90,South,174,3.0,6.0,88,0.00,,,0.00,Wunderground v.1.15,2013-02-14 06:13:00,
2013-02-14 01:19:00,35.3,32.1,29.90,South,182,4.0,7.0,88,0.00,,,0.00,Wunderground v.1.15,2013-02-14 06:19:00,
2013-02-14 01:25:00,35.5,32.3,29.90,SSW,192,4.0,6.0,88,0.00,,,0.00,Wunderground v.1.15,2013-02-14 06:25:00,
2013-02-14 01:31:00,35.5,32.3,29.89,South,172,4.0,6.0,88,0.00,,,0.00,Wunderground v.1.15,2013-02-14 06:31:00,
2013-02-14 01:37:00,35.9,33.0,29.89,South,191,5.0,6.0,89,0.00,,,0.00,Wunderground v.1.15,2013-02-14 06:37:00,
2013-02-14 01:43:00,36.1,32.9,29.89,SSW,200,5.0,7.0,88,0.00,,,0.00,Wunderground v.1.15,2013-02-14 06:43:00,
2013-02-14 01:49:00,36.5,33.3,29.89,SSW,206,6.0,11.0,88,0.00,,,0.00,Wunderground v.1.15,2013-02-14 06:49:00,
2013-02-14 01:54:00,36.8,33.6,29.89,South,178,7.0,7.0,88,0.00,,,0.00,Wunderground v.1.15,2013-02-14 06:54:00,
2013-02-14 02:00:00,36.9,33.4,29.89,SSW,208,7.0,10.0,87,0.00,,,0.00,Wunderground v.1.15,2013-02-14 07:00:00,
2013-02-14 02:06:00,36.8,33.6,29.89,SSW,202,6.0,7.0,88,0.00,,,0.00,Wunderground v.1.15,2013-02-14 07:06:00,
2013-02-14 02:12:00,37.1,33.9,29.89,SSW,205,6.0,8.0,88,0.00,,,0.00,Wunderground v.1.15,2013-02-14 07:12:00,
2013-02-14 02:18:00,37.2,34.0,29.89,SSW,206,7.0,11.0,88,0.00,,,0.00,Wunderground v.1.15,2013-02-14 07:18:00,
2013-02-14 02:24:00,37.4,33.9,29.89,SSW,198,8.0,8.0,87,0.00,,,0.00,Wunderground v.1.15,2013-02-14 07:24:00,
2013-02-14 02:30:00,37.5,34.0,29.89,SSW,213,8.0,10.0,87,0.00,,,0.00,Wunderground v.1.15,2013-02-14 07:30:00,
2013-02-14 02:36:00,37.7,34.2,29.89,SW,220,9.0,9.0,87,0.00,,,0.00,Wunderground v.1.15,2013-02-14 07:36:00,
2013-02-14 02:42:00,37.5,34.0,29.88,SSE,165,9.0,12.0,87,0.00,,,0.00,Wunderground v.1.15,2013-02-14 07:42:00,
2013-02-14 02:48:00,37.4,34.2,29.89,SSW,192,8.0,12.0,88,0.00,,,0.00,Wunderground v.1.15,2013-02-14 07:48:00,
2013-02-14 02:53:00,37.5,34.0,29.88,SSW,204,9.0,9.0,87,0.00,,,0.00,Wunderground v.1.15,2013-02-14 07:53:00,
2013-02-14 02:59:00,37.4,33.9,29.89,SSW,206,8.0,17.0,87,0.00,,,0.00,Wunderground v.1.15,2013-02-14 07:59:00,
2013-02-14 03:05:00,37.4,34.2,29.89,SSW,192,9.0,13.0,88,0.00,,,0.00,Wunderground v.1.15,2013-02-14 08:05:00,
2013-02-14 03:11:00,37.3,34.1,29.89,SW,236,8.0,13.0,88,0.00,,,0.00,Wunderground v.1.15,2013-02-14 08:11:00,
2013-02-14 03:17:00,37.4,34.2,29.88,SSW,211,8.0,13.0,88,0.00,,,0.00,Wunderground v.1.15,2013-02-14 08:17:00,
2013-02-14 03:23:00,37.3,34.1,29.89,SW,225,8.0,8.0,88,0.00,,,0.00,Wunderground v.1.15,2013-02-14 08:23:00,
2013-02-14 03:29:00,37.2,34.0,29.88,South,187,7.0,13.0,88,0.00,,,0.00,Wunderground v.1.15,2013-02-14 08:29:00,
2013-02-14 03:35:00,37.1,33.9,29.88,South,180,7.0,7.0,88,0.00,,,0.00,Wunderground v.1.15,2013-02-14 08:35:00,
2013-02-14 03:41:00,37.1,34.2,29.88,SSW,208,7.0,9.0,89,0.00,,,0.00,Wunderground v.1.15,2013-02-14 08:41:00,
2013-02-14 03:47:00,37.0,34.1,29.88,SSW,211,7.0,7.0,89,0.00,,,0.00,Wunderground v.1.15,2013-02-14 08:47:00,
2013-02-14 03:52:00,36.9,34.0,29.88,SSW,198,7.0,9.0,89,0.00,,,0.00,Wunderground v.1.15,2013-02-14 08:52:00,
2013-02-14 03:58:00,36.9,34.0,29.88,SSW,208,7.0,11.0,89,0.00,,,0.00,Wunderground v.1.15,2013-02-14 08:58:00,
2013-02-14 04:04:00,36.8,33.9,29.87,South,183,7.0,7.0,89,0.00,,,0.00,Wunderground v.1.15,2013-02-14 09:04:00,
2013-02-14 04:10:00,36.7,33.8,29.88,SW,219,7.0,10.0,89,0.00,,,0.00,Wunderground v.1.15,2013-02-14 09:10:00,
2013-02-14 04:16:00,36.5,33.6,29.87,South,176,6.0,7.0,89,0.00,,,0.00,Wunderground v.1.15,2013-02-14 09:16:00,
2013-02-14 04:22:00,36.6,33.9,29.87,SW,220,6.0,13.0,90,0.00,,,0.00,Wunderground v.1.15,2013-02-14 09:22:00,
2013-02-14 04:28:00,36.6,33.7,29.87,South,186,7.0,10.0,89,0.00,,,0.00,Wunderground v.1.15,2013-02-14 09:28:00,
2013-02-14 04:34:00,36.5,33.8,29.87,SSW,210,5.0,6.0,90,0.00,,,0.00,Wunderground v.1.15,2013-02-14 09:34:00,
2013-02-14 04:40:00,36.5,33.8,29.87,SSW,208,6.0,10.0,90,0.00,,,0.00,Wunderground v.1.15,2013-02-14 09:40:00,
2013-02-14 04:46:00,36.4,33.7,29.87,SW,218,6.0,8.0,90,0.00,,,0.00,Wunderground v.1.15,2013-02-14 09:46:00,
2013-02-14 04:52:00,36.5,33.8,29.87,South,175,6.0,8.0,90,0.00,,,0.00,Wunderground v.1.15,2013-02-14 09:52:00,
2013-02-14 04:57:00,36.5,33.8,29.87,SSW,210,5.0,7.0,90,0.00,,,0.00,Wunderground v.1.15,2013-02-14 09:57:00,
2013-02-14 05:03:00,36.5,33.8,29.87,SW,220,5.0,5.0,90,0.00,,,0.00,Wunderground v.1.15,2013-02-14 10:03:00,
2013-02-14 05:09:00,36.5,33.8,29.88,SSW,208,6.0,9.0,90,0.00,,,0.00,Wunderground v.1.15,2013-02-14 10:09:00,
2013-02-14 05:15:00,36.6,33.9,29.87,South,191,6.0,6.0,90,0.00,,,0.00,Wunderground v.1.15,2013-02-14 10:15:00,
2013-02-14 05:21:00,36.7,34.0,29.87,SW,227,7.0,12.0,90,0.00,,,0.00,Wunderground v.1.15,2013-02-14 10:21:00,
2013-02-14 05:27:00,36.7,34.0,29.88,SSW,202,6.0,10.0,90,0.00,,,0.00,Wunderground v.1.15,2013-02-14 10:27:00,
2013-02-14 05:33:00,36.8,34.1,29.87,SW,214,7.0,10.0,90,0.00,,,0.00,Wunderground v.1.15,2013-02-14 10:33:00,
2013-02-14 05:38:00,36.9,34.2,29.87,SSW,208,8.0,13.0,90,0.00,,,0.00,Wunderground v.1.15,2013-02-14 10:38:00,
2013-02-14 05:44:00,36.9,34.2,29.87,SSW,205,8.0,11.0,90,0.00,,,0.00,Wunderground v.1.15,2013-02-14 10:44:00,
2013-02-14 05:50:00,36.9,34.2,29.88,SW,228,7.0,11.0,90,0.00,,,0.00,Wunderground v.1.15,2013-02-14 10:50:00,
2013-02-14 05:56:00,36.9,34.2,29.87,South,183,7.0,12.0,90,0.00,,,0.00,Wunderground v.1.15,2013-02-14 10:56:00,
2013-02-14 06:02:00,36.9,34.2,29.87,SSW,204,7.0,12.0,90,0.00,,,0.00,Wunderground v.1.15,2013-02-14 11:02:00,
2013-02-14 06:08:00,36.9,34.0,29.87,SSW,208,8.0,14.0,89,0.00,,,0.00,Wunderground v.1.15,2013-02-14 11:08:00,
2013-02-14 06:14:00,36.8,33.9,29.87,SSW,202,6.0,7.0,89,0.00,,,0.00,Wunderground v.1.15,2013-02-14 11:14:00,
2013-02-14 06:20:00,36.7,34.0,29.87,South,172,6.0,9.0,90,0.00,,,0.00,Wunderground v.1.15,2013-02-14 11:20:00,
2013-02-14 06:26:00,36.7,34.0,29.87,SSE,161,6.0,7.0,90,0.00,,,0.00,Wunderground v.1.15,2013-02-14 11:26:00,
2013-02-14 06:31:00,36.6,33.9,29.87,SSW,197,6.0,7.0,90,0.00,,,0.00,Wunderground v.1.15,2013-02-14 11:31:00,
2013-02-14 06:37:00,36.5,33.8,29.87,SSW,195,5.0,8.0,90,0.00,,,0.00,Wunderground v.1.15,2013-02-14 11:37:00,
2013-02-14 06:43:00,36.6,33.9,29.87,South,176,5.0,5.0,90,0.00,,,0.00,Wunderground v.1.15,2013-02-14 11:43:00,
2013-02-14 06:48:00,36.4,33.7,29.87,South,180,4.0,5.0,90,0.00,,,0.00,Wunderground v.1.15,2013-02-14 11:48:00,
2013-02-14 06:54:00,36.4,33.7,29.87,South,174,4.0,5.0,90,0.00,,,0.00,Wunderground v.1.15,2013-02-14 11:54:00,
2013-02-14 07:00:00,36.2,33.5,29.87,SSE,156,5.0,6.0,90,0.00,,,0.00,Wunderground v.1.15,2013-02-14 12:00:00,
2013-02-14 07:06:00,36.2,33.5,29.87,South,183,5.0,15.0,90,0.00,,,0.00,Wunderground v.1.15,2013-02-14 12:06:00,
2013-02-14 07:12:00,36.2,33.8,29.87,South,187,5.0,15.0,91,0.00,,,0.00,Wunderground v.1.15,2013-02-14 12:12:00,
2013-02-14 07:19:00,36.1,33.5,29.87,South,171,5.0,15.0,90,0.00,,,0.00,Wunderground v.1.15,2013-02-14 12:19:00,
2013-02-14 07:25:00,36.2,33.5,29.87,SSE,158,6.0,15.0,90,0.00,,,0.00,Wunderground v.1.15,2013-02-14 12:25:00,
2013-02-14 07:31:00,36.0,33.4,29.87,SSE,155,6.0,15.0,90,0.00,,,0.00,Wunderground v.1.15,2013-02-14 12:31:00,
2013-02-14 07:37:00,36.1,33.5,29.87,South,177,6.0,15.0,90,0.00,,,0.00,Wunderground v.1.15,2013-02-14 12:37:00,
2013-02-14 07:43:00,36.0,33.4,29.87,South,179,5.0,15.0,90,0.00,,,0.00,Wunderground v.1.15,2013-02-14 12:43:00,
2013-02-14 07:49:00,36.1,33.5,29.87,South,178,5.0,15.0,90,0.00,,,0.00,Wunderground v.1.15,2013-02-14 12:49:00,
2013-02-14 07:55:00,36.1,33.5,29.87,SSE,160,5.0,15.0,90,0.00,,,0.00,Wunderground v.1.15,2013-02-14 12:55:00,
2013-02-14 08:01:00,36.2,33.5,29.87,South,180,4.0,15.0,90,0.00,,,0.00,Wunderground v.1.15,2013-02-14 13:01:00,
2013-02-14 08:07:00,36.2,33.8,29.87,South,176,4.0,15.0,91,0.00,,,0.00,Wunderground v.1.15,2013-02-14 13:07:00,
2013-02-14 08:13:00,36.4,34.0,29.87,South,175,5.0,15.0,91,0.00,,,0.00,Wunderground v.1.15,2013-02-14 13:13:00,
2013-02-14 08:18:00,36.4,33.7,29.87,South,176,5.0,15.0,90,0.00,,,0.00,Wunderground v.1.15,2013-02-14 13:18:00,
2013-02-14 08:24:00,36.5,33.8,29.87,South,173,5.0,15.0,90,0.00,,,0.00,Wunderground v.1.15,2013-02-14 13:24:00,
2013-02-14 08:30:00,36.6,33.9,29.87,South,169,5.0,15.0,90,0.00,,,0.00,Wunderground v.1.15,2013-02-14 13:30:00,
2013-02-14 08:36:00,36.8,34.1,29.87,SE,145,6.0,15.0,90,0.00,,,0.00,Wunderground v.1.15,2013-02-14 13:36:00,
2013-02-14 08:42:00,36.9,34.2,29.87,SSE,152,6.0,15.0,90,0.00,,,0.00,Wunderground v.1.15,2013-02-14 13:42:00,
2013-02-14 08:48:00,37.0,34.1,29.88,SSE,156,5.0,15.0,89,0.00,,,0.00,Wunderground v.1.15,2013-02-14 13:48:00,
2013-02-14 08:54:00,37.1,34.2,29.88,South,188,6.0,15.0,89,0.00,,,0.00,Wunderground v.1.15,2013-02-14 13:54:00,
2013-02-14 09:00:00,37.2,34.3,29.88,SSE,158,6.0,15.0,89,0.00,,,0.00,Wunderground v.1.15,2013-02-14 14:00:00,
2013-02-14 09:06:00,37.3,34.1,29.87,SSE,151,5.0,15.0,88,0.00,,,0.00,Wunderground v.1.15,2013-02-14 14:06:00,
2013-02-14 09:12:00,37.4,34.2,29.87,SSE,164,6.0,15.0,88,0.00,,,0.00,Wunderground v.1.15,2013-02-14 14:12:00,
2013-02-14 09:18:00,37.5,34.0,29.88,South,188,7.0,15.0,87,0.00,,,0.00,Wunderground v.1.15,2013-02-14 14:18:00,
2013-02-14 09:23:00,38.1,34.6,29.87,SSE,161,7.0,15.0,87,0.00,,,0.00,Wunderground v.1.15,2013-02-14 14:23:00,
2013-02-14 09:29:00,38.5,34.7,29.87,SSE,162,8.0,15.0,86,0.00,,,0.00,Wunderground v.1.15,2013-02-14 14:29:00,
2013-02-14 09:35:00,38.8,35.0,29.87,SSW,194,8.0,15.0,86,0.00,,,0.00,Wunderground v.1.15,2013-02-14 14:35:00,
2013-02-14 09:41:00,38.7,34.9,29.87,SSE,160,10.0,15.0,86,0.00,,,0.00,Wunderground v.1.15,2013-02-14 14:41:00,
2013-02-14 09:47:00,38.8,34.7,29.88,South,176,12.0,15.0,85,0.00,,,0.00,Wunderground v.1.15,2013-02-14 14:47:00,
2013-02-14 09:53:00,39.2,35.1,29.88,SW,220,12.0,15.0,85,0.00,,,0.00,Wunderground v.1.15,2013-02-14 14:53:00,
2013-02-14 09:59:00,39.7,35.6,29.88,SSW,202,11.0,15.0,85,0.00,,,0.00,Wunderground v.1.15,2013-02-14 14:59:00,
2013-02-14 10:05:00,39.8,35.1,29.88,SSW,204,11.0,16.0,83,0.00,,,0.00,Wunderground v.1.15,2013-02-14 15:05:00,
2013-02-14 10:11:00,40.1,35.7,29.87,SSW,206,12.0,19.0,84,0.00,,,0.00,Wunderground v.1.15,2013-02-14 15:11:00,
2013-02-14 10:17:00,40.5,35.7,29.87,SSW,193,11.0,16.0,83,0.00,,,0.00,Wunderground v.1.15,2013-02-14 15:17:00,
2013-02-14 10:23:00,41.1,36.0,29.87,South,191,10.0,15.0,82,0.00,,,0.00,Wunderground v.1.15,2013-02-14 15:23:00,
2013-02-14 10:29:00,41.2,35.8,29.87,South,169,11.0,15.0,81,0.00,,,0.00,Wunderground v.1.15,2013-02-14 15:29:00,
2013-02-14 10:35:00,41.2,35.5,29.87,South,190,12.0,15.0,80,0.00,,,0.00,Wunderground v.1.15,2013-02-14 15:35:00,
2013-02-14 10:40:00,41.8,36.1,29.87,SW,227,11.0,15.0,80,0.00,,,0.00,Wunderground v.1.15,2013-02-14 15:40:00,
2013-02-14 10:46:00,42.0,36.0,29.87,South,191,10.0,15.0,79,0.00,,,0.00,Wunderground v.1.15,2013-02-14 15:46:00,
2013-02-14 10:52:00,42.9,36.2,29.87,SW,220,9.0,15.0,77,0.00,,,0.00,Wunderground v.1.15,2013-02-14 15:52:00,
2013-02-14 10:58:00,43.0,36.0,29.87,SSW,206,10.0,17.0,76,0.00,,,0.00,Wunderground v.1.15,2013-02-14 15:58:00,
2013-02-14 11:04:00,43.4,36.3,29.87,SW,219,12.0,16.0,76,0.00,,,0.00,Wunderground v.1.15,2013-02-14 16:04:00,
2013-02-14 11:10:00,43.0,36.0,29.87,SW,214,12.0,20.0,76,0.00,,,0.00,Wunderground v.1.15,2013-02-14 16:10:00,
2013-02-14 11:16:00,43.2,35.8,29.87,SSW,201,13.0,17.0,75,0.00,,,0.00,Wunderground v.1.15,2013-02-14 16:16:00,
2013-02-14 11:22:00,43.9,36.1,29.87,WSW,249,12.0,17.0,74,0.00,,,0.00,Wunderground v.1.15,2013-02-14 16:22:00,
2013-02-14 11:28:00,44.1,36.0,29.87,WSW,250,13.0,15.0,73,0.00,,,0.00,Wunderground v.1.15,2013-02-14 16:28:00,
2013-02-14 11:34:00,44.0,36.2,29.88,SW,231,13.0,16.0,74,0.00,,,0.00,Wunderground v.1.15,2013-02-14 16:34:00,
2013-02-14 11:39:00,44.5,36.7,29.88,SW,219,12.0,16.0,74,0.00,,,0.00,Wunderground v.1.15,2013-02-14 16:39:00,
2013-02-14 11:45:00,44.5,36.4,29.88,WSW,238,12.0,18.0,73,0.00,,,0.00,Wunderground v.1.15,2013-02-14 16:45:00,
2013-02-14 11:51:00,44.4,36.3,29.88,SW,229,13.0,18.0,73,0.00,,,0.00,Wunderground v.1.15,2013-02-14 16:51:00,
2013-02-14 11:57:00,44.8,36.7,29.88,SSW,212,10.0,15.0,73,0.00,,,0.00,Wunderground v.1.15,2013-02-14 16:57:00,
2013-02-14 12:03:00,44.5,36.0,29.88,SW,227,10.0,15.0,72,0.00,,,0.00,Wunderground v.1.15,2013-02-14 17:03:00,
2013-02-14 12:09:00,45.0,36.9,29.87,SW,216,11.0,17.0,73,0.00,,,0.00,Wunderground v.1.15,2013-02-14 17:09:00,
2013-02-14 12:15:00,45.3,36.8,29.87,SW,220,11.0,15.0,72,0.00,,,0.00,Wunderground v.1.15,2013-02-14 17:15:00,
2013-02-14 12:21:00,45.2,36.7,29.87,SW,217,10.0,17.0,72,0.00,,,0.00,Wunderground v.1.15,2013-02-14 17:21:00,
2013-02-14 12:27:00,45.1,37.0,29.87,WSW,251,11.0,15.0,73,0.00,,,0.00,Wunderground v.1.15,2013-02-14 17:27:00,
2013-02-14 12:33:00,45.8,36.9,29.87,SSW,206,10.0,10.0,71,0.00,,,0.00,Wunderground v.1.15,2013-02-14 17:33:00,
2013-02-14 12:39:00,45.8,36.9,29.87,SW,223,11.0,18.0,71,0.00,,,0.00,Wunderground v.1.15,2013-02-14 17:39:00,
2013-02-14 12:44:00,45.6,36.7,29.87,SW,232,13.0,22.0,71,0.00,,,0.00,Wunderground v.1.15,2013-02-14 17:44:00,
2013-02-14 12:49:00,46.2,37.7,29.87,SSW,211,14.0,22.0,72,0.00,,,0.00,Wunderground v.1.15,2013-02-14 17:49:00,
2013-02-14 12:55:00,46.8,37.9,29.87,SSW,208,11.0,15.0,71,0.00,,,0.00,Wunderground v.1.15,2013-02-14 17:55:00,
2013-02-14 13:01:00,46.4,37.9,29.87,SW,227,9.0,17.0,72,0.00,,,0.00,Wunderground v.1.15,2013-02-14 18:01:00,
2013-02-14 13:07:00,46.3,37.4,29.87,South,174,11.0,18.0,71,0.00,,,0.00,Wunderground v.1.15,2013-02-14 18:07:00,
2013-02-14 13:13:00,46.2,37.7,29.87,WSW,246,11.0,15.0,72,0.00,,,0.00,Wunderground v.1.15,2013-02-14 18:13:00,
2013-02-14 13:19:00,46.7,37.8,29.87,SW,233,9.0,22.0,71,0.00,,,0.00,Wunderground v.1.15,2013-02-14 18:19:00,
2013-02-14 13:26:00,46.8,37.9,29.86,SSW,192,12.0,15.0,71,0.00,,,0.00,Wunderground v.1.15,2013-02-14 18:26:00,
2013-02-14 13:32:00,47.4,38.1,29.86,SW,220,12.0,15.0,70,0.00,,,0.00,Wunderground v.1.15,2013-02-14 18:32:00,
2013-02-14 13:37:00,47.4,37.7,29.86,SSW,213,13.0,17.0,69,0.00,,,0.00,Wunderground v.1.15,2013-02-14 18:37:00,
2013-02-14 13:43:00,48.0,37.9,29.85,SSW,207,12.0,15.0,68,0.00,,,0.00,Wunderground v.1.15,2013-02-14 18:43:00,
2013-02-14 13:49:00,48.1,37.7,29.85,SW,220,12.0,15.0,67,0.00,,,0.00,Wunderground v.1.15,2013-02-14 18:49:00,
2013-02-14 13:55:00,48.4,37.6,29.85,SW,229,13.0,18.0,66,0.00,,,0.00,Wunderground v.1.15,2013-02-14 18:55:00,
2013-02-14 14:01:00,49.1,38.2,29.85,SSE,167,12.0,18.0,66,0.00,,,0.00,Wunderground v.1.15,2013-02-14 19:01:00,
2013-02-14 14:07:00,49.0,37.3,29.85,SW,222,11.0,15.0,64,0.00,,,0.00,Wunderground v.1.15,2013-02-14 19:07:00,
2013-02-14 14:13:00,49.3,38.0,29.85,SW,222,12.0,12.0,65,0.00,,,0.00,Wunderground v.1.15,2013-02-14 19:13:00,
2013-02-14 14:19:00,49.4,38.1,29.85,SSW,212,13.0,19.0,65,0.00,,,0.00,Wunderground v.1.15,2013-02-14 19:19:00,
2013-02-14 14:25:00,49.8,37.7,29.85,SW,216,13.0,18.0,63,0.00,,,0.00,Wunderground v.1.15,2013-02-14 19:25:00,
2013-02-14 14:31:00,49.7,38.0,29.85,South,185,13.0,18.0,64,0.00,,,0.00,Wunderground v.1.15,2013-02-14 19:31:00,
2013-02-14 14:37:00,49.2,37.5,29.86,West,264,12.0,15.0,64,0.00,,,0.00,Wunderground v.1.15,2013-02-14 19:37:00,
2013-02-14 14:43:00,49.4,38.9,29.86,WSW,257,10.0,10.0,67,0.00,,,0.00,Wunderground v.1.15,2013-02-14 19:43:00,
2013-02-14 14:48:00,49.4,38.5,29.86,SW,235,8.0,15.0,66,0.00,,,0.00,Wunderground v.1.15,2013-02-14 19:48:00,
2013-02-14 14:54:00,49.3,38.0,29.86,WNW,291,8.0,11.0,65,0.00,,,0.00,Wunderground v.1.15,2013-02-14 19:54:00,
2013-02-14 15:00:00,49.2,37.9,29.86,WNW,291,7.0,15.0,65,0.00,,,0.00,Wunderground v.1.15,2013-02-14 20:00:00,
2013-02-14 15:05:00,49.6,37.5,29.86,WNW,288,8.0,15.0,63,0.00,,,0.00,Wunderground v.1.15,2013-02-14 20:05:00,
2013-02-14 15:11:00,50.0,37.5,29.86,WNW,287,9.0,15.0,62,0.00,,,0.00,Wunderground v.1.15,2013-02-14 20:11:00,
2013-02-14 15:17:00,49.8,37.3,29.87,WSW,257,11.0,20.0,62,0.00,,,0.00,Wunderground v.1.15,2013-02-14 20:17:00,
2013-02-14 15:23:00,50.1,37.6,29.87,West,277,12.0,12.0,62,0.00,,,0.00,Wunderground v.1.15,2013-02-14 20:23:00,
2013-02-14 15:29:00,50.6,37.2,29.87,SW,232,10.0,19.0,60,0.00,,,0.00,Wunderground v.1.15,2013-02-14 20:29:00,
2013-02-14 15:35:00,51.0,37.6,29.86,SW,222,11.0,15.0,60,0.00,,,0.00,Wunderground v.1.15,2013-02-14 20:35:00,
2013-02-14 15:41:00,51.2,36.9,29.87,NW,310,10.0,15.0,58,0.00,,,0.00,Wunderground v.1.15,2013-02-14 20:41:00,
2013-02-14 15:46:00,51.0,36.7,29.87,WNW,284,9.0,15.0,58,0.00,,,0.00,Wunderground v.1.15,2013-02-14 20:46:00,
2013-02-14 15:52:00,50.6,36.4,29.87,WSW,254,9.0,15.0,58,0.00,,,0.00,Wunderground v.1.15,2013-02-14 20:52:00,
2013-02-14 15:58:00,50.9,36.6,29.87,NNW,342,11.0,15.0,58,0.00,,,0.00,Wunderground v.1.15,2013-02-14 20:58:00,
2013-02-14 16:04:00,51.0,37.2,29.87,WSW,249,9.0,15.0,59,0.00,,,0.00,Wunderground v.1.15,2013-02-14 21:04:00,
2013-02-14 16:10:00,51.1,36.8,29.87,NW,317,8.0,15.0,58,0.00,,,0.00,Wunderground v.1.15,2013-02-14 21:10:00,
2013-02-14 16:16:00,51.3,37.0,29.88,WNW,284,9.0,15.0,58,0.00,,,0.00,Wunderground v.1.15,2013-02-14 21:16:00,
2013-02-14 16:22:00,50.7,36.9,29.88,SW,218,7.0,15.0,59,0.00,,,0.00,Wunderground v.1.15,2013-02-14 21:22:00,
2013-02-14 16:28:00,51.2,36.5,29.88,WSW,238,8.0,15.0,57,0.00,,,0.00,Wunderground v.1.15,2013-02-14 21:28:00,
2013-02-14 16:33:00,51.5,35.9,29.88,West,272,9.0,15.0,55,0.00,,,0.00,Wunderground v.1.15,2013-02-14 21:33:00,
2013-02-14 16:39:00,51.1,36.4,29.89,West,279,10.0,18.0,57,0.00,,,0.00,Wunderground v.1.15,2013-02-14 21:39:00,
2013-02-14 16:45:00,50.9,37.1,29.89,SW,216,10.0,15.0,59,0.00,,,0.00,Wunderground v.1.15,2013-02-14 21:45:00,
2013-02-14 16:51:00,51.2,36.5,29.89,SSW,198,10.0,19.0,57,0.00,,,0.00,Wunderground v.1.15,2013-02-14 21:51:00,
2013-02-14 16:57:00,51.0,34.9,29.89,WNW,301,11.0,15.0,54,0.00,,,0.00,Wunderground v.1.15,2013-02-14 21:57:00,
2013-02-14 17:03:00,51.2,33.7,29.89,WSW,244,11.0,15.0,51,0.00,,,0.00,Wunderground v.1.15,2013-02-14 22:03:00,
2013-02-14 17:09:00,51.2,33.2,29.89,West,281,11.0,15.0,50,0.00,,,0.00,Wunderground v.1.15,2013-02-14 22:09:00,
2013-02-14 17:15:00,51.1,33.1,29.90,WNW,288,10.0,15.0,50,0.00,,,0.00,Wunderground v.1.15,2013-02-14 22:15:00,
2013-02-14 17:21:00,50.5,34.0,29.90,NW,307,10.0,15.0,53,0.00,,,0.00,Wunderground v.1.15,2013-02-14 22:21:00,
2013-02-14 17:27:00,50.5,34.5,29.90,SW,218,11.0,15.0,54,0.00,,,0.00,Wunderground v.1.15,2013-02-14 22:27:00,
2013-02-14 17:33:00,50.2,32.8,29.91,SSW,203,10.0,15.0,51,0.00,,,0.00,Wunderground v.1.15,2013-02-14 22:33:00,
2013-02-14 17:39:00,49.9,33.4,29.91,WNW,293,11.0,15.0,53,0.00,,,0.00,Wunderground v.1.15,2013-02-14 22:39:00,
2013-02-14 17:44:00,49.8,34.3,29.92,West,281,10.0,15.0,55,0.00,,,0.00,Wunderground v.1.15,2013-02-14 22:44:00,
2013-02-14 17:50:00,49.4,34.3,29.92,NW,304,9.0,15.0,56,0.00,,,0.00,Wunderground v.1.15,2013-02-14 22:50:00,
2013-02-14 17:56:00,49.0,34.0,29.92,WNW,289,10.0,15.0,56,0.00,,,0.00,Wunderground v.1.15,2013-02-14 22:56:00,
2013-02-14 18:02:00,48.6,34.0,29.92,WNW,286,11.0,15.0,57,0.00,,,0.00,Wunderground v.1.15,2013-02-14 23:02:00,
2013-02-14 18:08:00,48.2,34.1,29.93,NW,320,10.0,15.0,58,0.00,,,0.00,Wunderground v.1.15,2013-02-14 23:08:00,
2013-02-14 18:14:00,48.0,33.9,29.94,WNW,297,9.0,15.0,58,0.00,,,0.00,Wunderground v.1.15,2013-02-14 23:14:00,
2013-02-14 18:20:00,47.8,33.7,29.94,WNW,288,10.0,15.0,58,0.00,,,0.00,Wunderground v.1.15,2013-02-14 23:20:00,
2013-02-14 18:26:00,47.2,34.0,29.94,NW,312,9.0,15.0,60,0.00,,,0.00,Wunderground v.1.15,2013-02-14 23:26:00,
2013-02-14 18:31:00,46.7,35.2,29.94,NNW,332,8.0,8.0,64,0.00,,,0.00,Wunderground v.1.15,2013-02-14 23:31:00,
2013-02-14 18:37:00,46.3,35.2,29.94,NW,322,7.0,15.0,65,0.00,,,0.00,Wunderground v.1.15,2013-02-14 23:37:00,
2013-02-14 18:43:00,46.0,35.3,29.95,NNW,335,6.0,15.0,66,0.00,,,0.00,Wunderground v.1.15,2013-02-14 23:43:00,
2013-02-14 18:49:00,45.6,35.3,29.95,NW,320,6.0,15.0,67,0.00,,,0.00,Wunderground v.1.15,2013-02-14 23:49:00,
2013-02-14 18:55:00,45.2,35.3,29.96,NW,312,7.0,15.0,68,0.00,,,0.00,Wunderground v.1.15,2013-02-14 23:55:00,
2013-02-14 19:01:00,44.9,35.3,29.96,NNW,329,9.0,15.0,69,0.00,,,0.00,Wunderground v.1.15,2013-02-15 00:01:00,
2013-02-14 19:07:00,44.6,35.1,29.97,NNW,332,9.0,16.0,69,0.00,,,0.00,Wunderground v.1.15,2013-02-15 00:07:00,
2013-02-14 19:13:00,44.3,34.8,29.97,WNW,285,11.0,15.0,69,0.00,,,0.00,Wunderground v.1.15,2013-02-15 00:13:00,
2013-02-14 19:19:00,44.2,34.7,29.98,NW,313,11.0,15.0,69,0.00,,,0.00,Wunderground v.1.15,2013-02-15 00:19:00,
2013-02-14 19:25:00,43.7,34.2,29.98,WNW,289,9.0,15.0,69,0.00,,,0.00,Wunderground v.1.15,2013-02-15 00:25:00,
2013-02-14 19:31:00,43.7,34.2,29.98,WNW,302,9.0,15.0,69,0.00,,,0.00,Wunderground v.1.15,2013-02-15 00:31:00,
2013-02-14 19:37:00,43.4,34.3,29.98,NW,317,9.0,15.0,70,0.00,,,0.00,Wunderground v.1.15,2013-02-15 00:37:00,
2013-02-14 19:43:00,43.1,34.0,29.99,NW,319,7.0,15.0,70,0.00,,,0.00,Wunderground v.1.15,2013-02-15 00:43:00,
2013-02-14 19:49:00,42.9,34.1,29.99,NW,312,7.0,15.0,71,0.00,,,0.00,Wunderground v.1.15,2013-02-15 00:49:00,
2013-02-14 19:55:00,42.7,33.9,29.99,NW,325,6.0,15.0,71,0.00,,,0.00,Wunderground v.1.15,2013-02-15 00:55:00,
2013-02-14 20:01:00,42.2,33.5,30.00,NW,314,6.0,15.0,71,0.00,,,0.00,Wunderground v.1.15,2013-02-15 01:01:00,
2013-02-14 20:07:00,42.0,33.6,30.00,NW,326,9.0,15.0,72,0.00,,,0.00,Wunderground v.1.15,2013-02-15 01:07:00,
2013-02-14 20:13:00,41.8,33.4,30.00,NW,314,10.0,15.0,72,0.00,,,0.00,Wunderground v.1.15,2013-02-15 01:13:00,
2013-02-14 20:19:00,41.3,33.3,30.00,NW,305,8.0,15.0,73,0.00,,,0.00,Wunderground v.1.15,2013-02-15 01:19:00,
2013-02-14 20:24:00,41.2,33.2,30.00,NW,326,8.0,15.0,73,0.00,,,0.00,Wunderground v.1.15,2013-02-15 01:24:00,
2013-02-14 20:30:00,41.1,33.1,30.01,NW,312,8.0,15.0,73,0.00,,,0.00,Wunderground v.1.15,2013-02-15 01:30:00,
2013-02-14 20:36:00,40.8,32.8,30.01,NW,311,9.0,15.0,73,0.00,,,0.00,Wunderground v.1.15,2013-02-15 01:36:00,
2013-02-14 20:42:00,40.4,32.8,30.01,NW,314,10.0,15.0,74,0.00,,,0.00,Wunderground v.1.15,2013-02-15 01:42:00,
2013-02-14 20:48:00,40.2,32.6,30.02,NNW,337,9.0,15.0,74,0.00,,,0.00,Wunderground v.1.15,2013-02-15 01:48:00,
2013-02-14 20:53:00,39.9,32.3,30.02,NW,325,8.0,15.0,74,0.00,,,0.00,Wunderground v.1.15,2013-02-15 01:53:00,
2013-02-14 20:59:00,39.7,32.1,30.02,NW,313,8.0,15.0,74,0.00,,,0.00,Wunderground v.1.15,2013-02-15 01:59:00,
2013-02-14 21:05:00,39.4,31.8,30.02,NNW,328,10.0,15.0,74,0.00,,,0.00,Wunderground v.1.15,2013-02-15 02:05:00,
2013-02-14 21:11:00,39.1,31.5,30.02,NW,318,9.0,15.0,74,0.00,,,0.00,Wunderground v.1.15,2013-02-15 02:11:00,
2013-02-14 21:17:00,38.9,31.3,30.03,WNW,301,9.0,15.0,74,0.00,,,0.00,Wunderground v.1.15,2013-02-15 02:17:00,
2013-02-14 21:23:00,38.6,31.0,30.03,NW,315,7.0,15.0,74,0.00,,,0.00,Wunderground v.1.15,2013-02-15 02:23:00,
2013-02-14 21:28:00,38.5,30.9,30.03,NNW,343,7.0,15.0,74,0.00,,,0.00,Wunderground v.1.15,2013-02-15 02:28:00,
2013-02-14 21:34:00,38.5,30.9,30.03,NNW,327,9.0,15.0,74,0.00,,,0.00,Wunderground v.1.15,2013-02-15 02:34:00,
2013-02-14 21:40:00,38.3,30.7,30.03,NW,311,9.0,15.0,74,0.00,,,0.00,Wunderground v.1.15,2013-02-15 02:40:00,
2013-02-14 21:46:00,38.2,30.6,30.04,NW,321,8.0,15.0,74,0.00,,,0.00,Wunderground v.1.15,2013-02-15 02:46:00,
2013-02-14 21:52:00,38.2,30.6,30.04,NW,310,9.0,15.0,74,0.00,,,0.00,Wunderground v.1.15,2013-02-15 02:52:00,
2013-02-14 21:57:00,38.3,30.4,30.04,NNW,333,10.0,15.0,73,0.00,,,0.00,Wunderground v.1.15,2013-02-15 02:57:00,
2013-02-14 22:03:00,38.3,30.4,30.04,NW,308,9.0,15.0,73,0.00,,,0.00,Wunderground v.1.15,2013-02-15 03:03:00,
2013-02-14 22:09:00,38.3,30.1,30.04,NNW,330,10.0,16.0,72,0.00,,,0.00,Wunderground v.1.15,2013-02-15 03:09:00,
2013-02-14 22:15:00,38.4,29.8,30.05,NW,312,11.0,15.0,71,0.00,,,0.00,Wunderground v.1.15,2013-02-15 03:15:00,
2013-02-14 22:21:00,38.2,30.0,30.05,NNW,328,10.0,15.0,72,0.00,,,0.00,Wunderground v.1.15,2013-02-15 03:21:00,
2013-02-14 22:26:00,38.2,29.6,30.04,NW,320,9.0,15.0,71,0.00,,,0.00,Wunderground v.1.15,2013-02-15 03:26:00,
2013-02-14 22:32:00,38.2,29.6,30.04,NW,324,9.0,15.0,71,0.00,,,0.00,Wunderground v.1.15,2013-02-15 03:32:00,
2013-02-14 22:38:00,38.2,29.3,30.04,NW,320,8.0,15.0,70,0.00,,,0.00,Wunderground v.1.15,2013-02-15 03:38:00,
2013-02-14 22:44:00,37.9,29.3,30.04,NW,318,7.0,15.0,71,0.00,,,0.00,Wunderground v.1.15,2013-02-15 03:44:00,
2013-02-14 22:50:00,37.6,29.0,30.04,WNW,301,5.0,5.0,71,0.00,,,0.00,Wunderground v.1.15,2013-02-15 03:50:00,
2013-02-14 22:56:00,37.3,28.8,30.04,WNW,287,4.0,15.0,71,0.00,,,0.00,Wunderground v.1.15,2013-02-15 03:56:00,
2013-02-14 23:02:00,37.0,28.8,30.04,WNW,283,2.0,15.0,72,0.00,,,0.00,Wunderground v.1.15,2013-02-15 04:02:00,
2013-02-14 23:08:00,36.9,28.7,30.04,WNW,289,2.0,15.0,72,0.00,,,0.00,Wunderground v.1.15,2013-02-15 04:08:00,
2013-02-14 23:14:00,36.8,29.0,30.04,WNW,290,3.0,15.0,73,0.00,,,0.00,Wunderground v.1.15,2013-02-15 04:14:00,
2013-02-14 23:20:00,36.6,28.4,30.03,WNW,290,2.0,15.0,72,0.00,,,0.00,Wunderground v.1.15,2013-02-15 04:20:00,
2013-02-14 23:26:00,36.5,28.7,30.03,WNW,297,3.0,15.0,73,0.00,,,0.00,Wunderground v.1.15,2013-02-15 04:26:00,
2013-02-14 23:32:00,36.6,28.4,30.04,WNW,288,3.0,15.0,72,0.00,,,0.00,Wunderground v.1.15,2013-02-15 04:32:00,
2013-02-14 23:38:00,36.4,28.6,30.04,WSW,251,2.0,15.0,73,0.00,,,0.00,Wunderground v.1.15,2013-02-15 04:38:00,
2013-02-14 23:44:00,36.1,28.3,30.03,WSW,239,1.0,15.0,73,0.00,,,0.00,Wunderground v.1.15,2013-02-15 04:44:00,
2013-02-14 23:49:00,36.1,28.3,30.03,SW,230,2.0,15.0,73,0.00,,,0.00,Wunderground v.1.15,2013-02-15 04:49:00,
2013-02-14 23:55:00,36.3,28.5,30.03,WSW,237,2.0,15.0,73,0.00,,,0.00,Wunderground v.1.15,2013-02-15 04:55:00,